FW9423 Weather Reports


time (UTC)temp
C
wind
direction
speed
KPH
gust
KPH
rain 1hr
cm
rain 24hr
cm
rain mn
cm
humidity
%
barometer
mb
20260508214047 9 360 3.2 8.0 0.00 0.00 0.00 84 1031.1
20260508213543 9 360 3.2 9.7 0.00 0.00 0.00 84 1030.9
20260508213052 10 360 4.8 9.7 0.00 0.00 0.00 84 1031.0
20260508212544 10 360 4.8 9.7 0.00 0.00 0.00 83 1030.9
20260508212040 10 360 4.8 8.0 0.00 0.00 0.00 84 1030.9
20260508211556 10 360 3.2 8.0 0.00 0.00 0.00 84 1030.9
20260508211040 10 360 4.8 8.0 0.00 0.00 0.00 84 1030.9
20260508210543 10 360 3.2 8.0 0.00 0.00 0.00 83 1030.8
20260508210053 9 360 4.8 8.0 0.00 0.00 0.00 83 1030.8
20260508205543 9 360 3.2 8.0 0.00 0.00 0.00 84 1030.8
20260508205046 9 360 3.2 8.0 0.00 0.00 0.00 84 1030.8
20260508204556 9 360 4.8 8.0 0.00 0.00 0.00 83 1030.7
20260508204039 9 360 3.2 6.4 0.00 0.00 0.00 83 1030.7
20260508203540 9 360 3.2 6.4 0.00 0.00 0.00 83 1030.6
20260508203055 9 360 3.2 4.8 0.00 0.00 0.00 82 1030.6
20260508202541 9 360 1.6 4.8 0.00 0.00 0.00 82 1030.7
20260508202040 9 360 1.6 4.8 0.00 0.00 0.00 82 1030.6
20260508201547 10 360 1.6 4.8 0.00 0.00 0.00 82 1030.5
20260508201040 10 360 3.2 4.8 0.00 0.00 0.00 82 1030.5
20260508200540 10 360 3.2 4.8 0.00 0.00 0.00 81 1030.5
20260508200105 10 360 1.6 4.8 0.00 0.00 0.00 81 1030.5
20260508195540 10 360 3.2 6.4 0.00 0.00 0.00 81 1030.5
20260508195043 10 360 1.6 6.4 0.00 0.00 0.00 80 1030.5
20260508194602 10 360 3.2 6.4 0.00 0.00 0.00 80 1030.3
20260508194044 10 360 1.6 6.4 0.00 0.00 0.00 80 1030.3
20260508193540 10 360 3.2 8.0 0.00 0.00 0.00 80 1030.3
20260508193104 10 360 3.2 8.0 0.00 0.00 0.00 80 1030.3
20260508192540 10 360 3.2 6.4 0.00 0.00 0.00 80 1030.3
20260508192041 10 360 3.2 6.4 0.00 0.00 0.00 80 1030.3
20260508191554 10 360 3.2 8.0 0.00 0.00 0.00 80 1030.3
20260508191039 10 360 3.2 8.0 0.00 0.00 0.00 79 1030.3
20260508190545 10 360 4.8 8.0 0.00 0.00 0.00 80 1030.3
20260508190054 10 360 3.2 8.0 0.00 0.00 0.00 80 1030.3
20260508185542 10 360 3.2 6.4 0.00 0.00 0.00 79 1030.5
20260508185044 10 360 3.2 4.8 0.00 0.00 0.00 79 1030.5
20260508184555 10 360 1.6 4.8 0.00 0.00 0.00 79 1030.5
20260508184039 10 360 1.6 4.8 0.00 0.00 0.00 78 1030.5
20260508183543 11 0 1.6 4.8 0.00 0.00 0.00 78 1030.5
20260508183053 11 360 1.6 4.8 0.00 0.00 0.00 78 1030.4
20260508182545 11 360 1.6 4.8 0.00 0.00 0.00 77 1030.3
20260508182043 11 360 1.6 4.8 0.00 0.00 0.00 77 1030.4
20260508181556 11 360 1.6 6.4 0.00 0.00 0.00 77 1030.3
20260508181041 11 360 3.2 6.4 0.00 0.00 0.00 76 1030.4
20260508180545 11 360 3.2 8.0 0.00 0.00 0.00 76 1030.3
20260508180058 11 360 3.2 8.0 0.00 0.00 0.00 76 1030.4
20260508175540 12 360 3.2 8.0 0.00 0.00 0.00 75 1030.4
20260508175044 12 360 3.2 9.7 0.00 0.00 0.00 75 1030.4
20260508174603 12 360 3.2 9.7 0.00 0.00 0.00 75 1030.4
20260508174042 12 360 4.8 8.0 0.00 0.00 0.00 75 1030.4
20260508173541 12 360 3.2 12.9 0.00 0.00 0.00 75 1030.4
20260508173050 12 360 4.8 12.9 0.00 0.00 0.00 75 1030.5
20260508172539 12 360 4.8 12.9 0.00 0.00 0.00 75 1030.6
20260508172039 12 360 6.4 12.9 0.00 0.00 0.00 75 1030.5
20260508171550 12 360 4.8 9.7 0.00 0.00 0.00 76 1030.5
20260508171044 12 360 3.2 6.4 0.00 0.00 0.00 75 1030.6
20260508170540 12 360 3.2 8.0 0.00 0.00 0.00 75 1030.5
20260508170052 12 360 4.8 12.9 0.00 0.00 0.00 75 1030.6
20260508165539 12 360 3.2 12.9 0.00 0.00 0.00 75 1030.5
20260508165042 12 360 3.2 9.7 0.00 0.00 0.00 75 1030.5
20260508164554 12 360 4.8 9.7 0.00 0.00 0.00 74 1030.5
20260508164041 12 360 3.2 8.0 0.00 0.00 0.00 74 1030.5
20260508163540 12 360 3.2 6.4 0.00 0.00 0.00 73 1030.5
20260508163053 12 360 3.2 6.4 0.00 0.00 0.00 72 1030.6
20260508162541 12 360 1.6 6.4 0.00 0.00 0.00 71 1030.6
20260508162041 12 360 3.2 6.4 0.00 0.00 0.00 71 1030.6
20260508161551 12 360 3.2 6.4 0.00 0.00 0.00 70 1030.6
20260508161045 12 360 1.6 6.4 0.00 0.00 0.00 69 1030.5
20260508160544 12 360 3.2 6.4 0.00 0.00 0.00 69 1030.6
20260508160053 12 360 1.6 6.4 0.00 0.00 0.00 68 1030.5
20260508155542 12 360 3.2 6.4 0.00 0.00 0.00 68 1030.5
20260508155043 12 360 3.2 8.0 0.00 0.00 0.00 68 1030.6
20260508154553 12 360 3.2 8.0 0.00 0.00 0.00 67 1030.6
20260508154040 12 360 4.8 8.0 0.00 0.00 0.00 67 1030.5
20260508153543 12 360 3.2 6.4 0.00 0.00 0.00 66 1030.6
20260508153053 12 360 3.2 6.4 0.00 0.00 0.00 65 1030.6
20260508152540 12 360 3.2 6.4 0.00 0.00 0.00 65 1030.6
20260508152040 12 360 3.2 6.4 0.00 0.00 0.00 65 1030.5
20260508151554 12 360 1.6 8.0 0.00 0.00 0.00 64 1030.6
20260508151045 12 360 3.2 9.7 0.00 0.00 0.00 64 1030.6
20260508150543 12 360 3.2 9.7 0.00 0.00 0.00 64 1030.6
20260508150046 12 360 3.2 9.7 0.00 0.00 0.00 65 1030.7
20260508145543 12 360 3.2 6.4 0.00 0.00 0.00 65 1030.7
20260508145042 12 360 3.2 6.4 0.00 0.00 0.00 65 1030.8
20260508144552 12 360 3.2 6.4 0.00 0.00 0.00 65 1030.7
20260508144043 12 360 1.6 6.4 0.00 0.00 0.00 65 1030.7
20260508143543 12 360 3.2 6.4 0.00 0.00 0.00 65 1030.7
20260508143058 12 360 3.2 6.4 0.00 0.00 0.00 65 1030.8
20260508142542 12 360 3.2 6.4 0.00 0.00 0.00 65 1030.9
20260508142043 12 360 3.2 6.4 0.00 0.00 0.00 65 1030.8
20260508141626 12 360 1.6 6.4 0.00 0.00 0.00 65 1031.0
20260508141041 12 360 3.2 6.4 0.00 0.00 0.00 64 1030.9
20260508140540 12 360 3.2 8.0 0.00 0.00 0.00 64 1031.0
20260508140059 13 360 3.2 8.0 0.00 0.00 0.00 64 1031.0
20260508135545 13 360 3.2 8.0 0.00 0.00 0.00 63 1031.0
20260508135045 13 360 4.8 8.0 0.00 0.00 0.00 63 1031.1
20260508134627 13 360 4.8 8.0 0.00 0.00 0.00 63 1031.1
20260508134040 13 360 4.8 12.9 0.00 0.00 0.00 63 1031.1
20260508133543 13 360 3.2 12.9 0.00 0.00 0.00 62 1031.1
20260508133058 13 360 4.8 12.9 0.00 0.00 0.00 62 1031.1
20260508132540 13 360 4.8 12.9 0.00 0.00 0.00 62 1031.2
20260508132042 13 360 6.4 12.9 0.00 0.00 0.00 62 1031.2
20260508131559 13 360 6.4 12.9 0.00 0.00 0.00 62 1031.2
20260508131044 13 360 6.4 12.9 0.00 0.00 0.00 62 1031.0
20260508130539 13 360 6.4 12.9 0.00 0.00 0.00 62 1031.1
20260508130105 13 360 6.4 12.9 0.00 0.00 0.00 61 1031.1
20260508125541 13 360 4.8 12.9 0.00 0.00 0.00 61 1031.1
20260508125040 13 360 4.8 12.9 0.00 0.00 0.00 61 1031.1
20260508124557 14 360 6.4 12.9 0.00 0.00 0.00 61 1031.1
20260508124046 14 360 6.4 14.5 0.00 0.00 0.00 60 1031.1
20260508123540 14 360 6.4 16.1 0.00 0.00 0.00 60 1031.0
20260508123133 14 360 8.0 16.1 0.00 0.00 0.00 60 1030.9
20260508122540 14 360 8.0 16.1 0.00 0.00 0.00 60 1030.8
20260508122040 14 360 8.0 16.1 0.00 0.00 0.00 59 1030.8
20260508121557 14 360 8.0 16.1 0.00 0.00 0.00 59 1030.8
20260508121043 14 360 8.0 14.5 0.00 0.00 0.00 59 1030.8
20260508120543 14 360 8.0 14.5 0.00 0.00 0.00 58 1030.9
20260508120100 14 360 8.0 16.1 0.00 0.00 0.00 58 1030.9
20260508115542 14 360 6.4 16.1 0.00 0.00 0.00 57 1030.8
20260508115043 15 360 6.4 14.5 0.00 0.00 0.00 57 1030.8
20260508114556 15 360 6.4 14.5 0.00 0.00 0.00 57 1030.8
20260508114043 15 360 6.4 14.5 0.00 0.00 0.00 56 1030.8
20260508113540 15 360 8.0 17.7 0.00 0.00 0.00 56 1030.8
20260508113107 15 360 6.4 17.7 0.00 0.00 0.00 55 1030.7
20260508112543 15 360 6.4 14.5 0.00 0.00 0.00 55 1030.8
20260508112041 15 360 8.0 16.1 0.00 0.00 0.00 55 1030.7
20260508111552 15 360 8.0 16.1 0.00 0.00 0.00 55 1030.7
20260508111043 15 360 8.0 16.1 0.00 0.00 0.00 54 1030.8
20260508110543 15 360 8.0 16.1 0.00 0.00 0.00 54 1030.7
20260508110057 15 360 8.0 14.5 0.00 0.00 0.00 54 1030.7
20260508105544 15 360 6.4 16.1 0.00 0.00 0.00 54 1030.7
20260508105044 15 360 6.4 16.1 0.00 0.00 0.00 53 1030.7
20260508104555 15 360 8.0 19.3 0.00 0.00 0.00 53 1030.7
20260508104045 15 360 8.0 19.3 0.00 0.00 0.00 53 1030.7
20260508103704 15 360 9.7 19.3 0.00 0.00 0.00 53 1030.6
20260508103052 16 360 8.0 20.9 0.00 0.00 0.00 53 1030.5
20260508102539 16 360 9.7 20.9 0.00 0.00 0.00 52 1030.5
20260508102046 16 360 9.7 20.9 0.00 0.00 0.00 52 1030.5
20260508101548 16 360 9.7 20.9 0.00 0.00 0.00 52 1030.4
20260508101044 16 360 8.0 25.7 0.00 0.00 0.00 52 1030.3
20260508100542 16 360 11.3 25.7 0.00 0.00 0.00 51 1030.3
20260508100048 16 360 11.3 20.9 0.00 0.00 0.00 51 1030.3
20260508095543 16 360 11.3 20.9 0.00 0.00 0.00 51 1030.3
20260508095046 16 360 11.3 20.9 0.00 0.00 0.00 51 1030.3
20260508094551 16 360 12.9 20.9 0.00 0.00 0.00 51 1030.2
20260508094042 16 360 12.9 20.9 0.00 0.00 0.00 50 1030.2
20260508093542 16 360 14.5 20.9 0.00 0.00 0.00 50 1030.3
20260508093054 17 360 11.3 20.9 0.00 0.00 0.00 49 1030.2
20260508092544 17 360 8.0 19.3 0.00 0.00 0.00 46 1030.2
20260508092043 17 360 11.3 19.3 0.00 0.00 0.00 45 1030.1
20260508091557 17 360 8.0 19.3 0.00 0.00 0.00 45 1030.0
20260508091042 17 360 8.0 24.1 0.00 0.00 0.00 44 1030.1
20260508090545 17 360 11.3 24.1 0.00 0.00 0.00 44 1030.0
20260508090105 17 360 11.3 24.1 0.00 0.00 0.00 44 1030.0
20260508085541 17 360 8.0 20.9 0.00 0.00 0.00 43 1029.9
20260508085041 17 360 12.9 20.9 0.00 0.00 0.00 43 1029.8
20260508084550 17 360 9.7 19.3 0.00 0.00 0.00 42 1029.9
20260508084044 17 360 11.3 19.3 0.00 0.00 0.00 42 1029.8
20260508083543 18 360 9.7 19.3 0.00 0.00 0.00 41 1029.8
20260508083047 18 360 11.3 24.1 0.00 0.00 0.00 41 1029.8
20260508082542 18 360 12.9 24.1 0.00 0.00 0.00 40 1029.7
20260508082042 18 360 12.9 24.1 0.00 0.00 0.00 40 1029.8
20260508081600 18 360 12.9 24.1 0.00 0.00 0.00 39 1029.8
20260508081042 18 360 12.9 24.1 0.00 0.00 0.00 39 1029.8
20260508080543 18 360 11.3 20.9 0.00 0.00 0.00 39 1029.8
20260508080335 18 360 12.9 22.5 0.00 0.00 0.00 39 1029.8
20260508075542 18 360 12.9 22.5 0.00 0.00 0.00 39 1029.8
20260508075041 18 360 12.9 24.1 0.00 0.00 0.00 39 1029.8
20260508074551 18 360 14.5 24.1 0.00 0.00 0.00 39 1029.8
20260508074046 18 360 14.5 25.7 0.00 0.00 0.00 39 1029.8
20260508073542 19 360 14.5 25.7 0.00 0.00 0.00 39 1029.9
20260508073107 19 360 14.5 27.4 0.00 0.00 0.00 38 1029.8
20260508072541 19 360 12.9 27.4 0.00 0.00 0.00 38 1029.9
20260508072040 19 360 11.3 24.1 0.00 0.00 0.00 39 1029.8
20260508071622 19 360 12.9 24.1 0.00 0.00 0.00 39 1029.8
20260508071042 19 360 12.9 24.1 0.00 0.00 0.00 39 1029.9
20260508070541 19 360 11.3 24.1 0.00 0.00 0.00 39 1029.8
20260508070100 19 360 12.9 24.1 0.00 0.00 0.00 39 1029.8
20260508065546 19 360 14.5 24.1 0.00 0.00 0.00 39 1029.9
20260508065042 19 360 12.9 24.1 0.00 0.00 0.00 39 1029.7
20260508064550 19 360 11.3 25.7 0.00 0.00 0.00 40 1029.8
20260508064045 19 360 16.1 25.7 0.00 0.00 0.00 39 1029.9
20260508063542 19 360 14.5 24.1 0.00 0.00 0.00 38 1029.8
20260508063053 19 360 14.5 24.1 0.00 0.00 0.00 39 1029.8
20260508062541 19 360 12.9 24.1 0.00 0.00 0.00 39 1029.9
20260508062042 19 360 12.9 24.1 0.00 0.00 0.00 39 1029.9
20260508061548 19 360 9.7 24.1 0.00 0.00 0.00 40 1029.9
20260508061042 20 360 11.3 24.1 0.00 0.00 0.00 39 1030.0
20260508060542 20 360 9.7 25.7 0.00 0.00 0.00 38 1030.0
20260508060047 19 360 12.9 25.7 0.00 0.00 0.00 39 1029.9
20260508055542 19 360 12.9 24.1 0.00 0.00 0.00 38 1029.9
20260508055043 19 360 14.5 24.1 0.00 0.00 0.00 38 1029.9
20260508054604 19 360 9.7 24.1 0.00 0.00 0.00 39 1030.0
20260508054044 20 360 12.9 30.6 0.00 0.00 0.00 39 1030.0
20260508053541 19 360 12.9 30.6 0.00 0.00 0.00 40 1030.1
20260508053053 20 360 14.5 30.6 0.00 0.00 0.00 39 1030.2
20260508052541 19 360 9.7 24.1 0.00 0.00 0.00 40 1030.2
20260508052040 18 360 11.3 24.1 0.00 0.00 0.00 40 1030.2
20260508051548 19 360 12.9 24.1 0.00 0.00 0.00 38 1030.2
20260508051042 19 360 11.3 24.1 0.00 0.00 0.00 39 1030.3
20260508050542 19 360 9.7 20.9 0.00 0.00 0.00 41 1030.3
20260508050053 19 360 12.9 20.9 0.00 0.00 0.00 41 1030.4
20260508045540 19 360 11.3 24.1 0.00 0.00 0.00 41 1030.6
20260508045043 19 360 14.5 24.1 0.00 0.00 0.00 41 1030.7
20260508044558 18 360 14.5 24.1 0.00 0.00 0.00 42 1030.7
20260508044046 18 360 14.5 24.1 0.00 0.00 0.00 42 1030.9
20260508043541 18 360 9.7 22.5 0.00 0.00 0.00 42 1030.9
20260508043047 18 360 9.7 22.5 0.00 0.00 0.00 43 1031.0
20260508042541 18 360 14.5 22.5 0.00 0.00 0.00 42 1031.0
20260508042041 18 360 12.9 22.5 0.00 0.00 0.00 43 1031.1
20260508041557 18 360 12.9 22.5 0.00 0.00 0.00 43 1031.3
20260508041042 18 360 11.3 20.9 0.00 0.00 0.00 43 1031.3
20260508040542 18 360 9.7 24.1 0.00 0.00 0.00 43 1031.4
20260508040059 18 360 11.3 24.1 0.00 0.00 0.00 44 1031.5
20260508035542 18 360 14.5 24.1 0.00 0.00 0.00 44 1031.5
20260508035042 18 360 11.3 25.7 0.00 0.00 0.00 44 1031.6
20260508034557 18 360 11.3 25.7 0.00 0.00 0.00 45 1031.8
20260508034042 18 360 8.0 20.9 0.00 0.00 0.00 44 1031.9
20260508033544 18 360 11.3 22.5 0.00 0.00 0.00 45 1032.0
20260508033113 18 360 12.9 24.1 0.00 0.00 0.00 45 1032.1
20260508032544 18 360 11.3 24.1 0.00 0.00 0.00 45 1032.2
20260508032042 17 360 11.3 24.1 0.00 0.00 0.00 45 1032.3
20260508031549 17 360 14.5 24.1 0.00 0.00 0.00 46 1032.4
20260508031046 17 360 12.9 24.1 0.00 0.00 0.00 46 1032.5
20260508030541 17 360 12.9 22.5 0.00 0.00 0.00 46 1032.6
20260508030106 17 360 12.9 27.4 0.00 0.00 0.00 47 1032.7
20260508025542 17 360 11.3 27.4 0.00 0.00 0.00 47 1032.9
20260508025042 17 360 14.5 24.1 0.00 0.00 0.00 46 1033.0
20260508024613 17 360 12.9 24.1 0.00 0.00 0.00 47 1033.1
20260508024046 17 360 9.7 20.9 0.00 0.00 0.00 48 1033.0
20260508023542 17 360 8.0 20.9 0.00 0.00 0.00 47 1033.2
20260508023051 17 360 12.9 22.5 0.00 0.00 0.00 48 1033.2
20260508022541 17 360 9.7 22.5 0.00 0.00 0.00 49 1033.3
20260508022041 16 360 12.9 22.5 0.00 0.00 0.00 50 1033.3
20260508021551 16 360 12.9 22.5 0.00 0.00 0.00 50 1033.4
20260508021041 16 360 14.5 30.6 0.00 0.00 0.00 51 1033.5
20260508020541 16 360 12.9 30.6 0.00 0.00 0.00 51 1033.5
20260508015541 16 360 14.5 24.1 0.00 0.00 0.00 52 1033.7
20260508015044 16 360 14.5 24.1 0.00 0.00 0.00 52 1033.8
20260508014600 16 360 12.9 22.5 0.00 0.00 0.00 53 1034.0
20260508014043 16 360 14.5 25.7 0.00 0.00 0.00 53 1034.0
20260508013541 16 360 16.1 27.4 0.00 0.00 0.00 54 1034.1
20260508013105 16 360 16.1 27.4 0.00 0.00 0.00 54 1034.1
20260508012541 15 360 16.1 27.4 0.00 0.00 0.00 54 1034.3
20260508012043 16 360 11.3 24.1 0.00 0.00 0.00 54 1034.2
20260508011559 15 360 14.5 25.7 0.00 0.00 0.00 56 1034.3
20260508011045 15 360 14.5 30.6 0.00 0.00 0.00 56 1034.3
20260508010540 15 360 16.1 30.6 0.00 0.00 0.00 56 1034.3
20260508010046 15 360 14.5 30.6 0.00 0.00 0.00 57 1034.3
20260508005541 15 360 17.7 30.6 0.00 0.00 0.00 57 1034.4
20260508005042 15 360 14.5 25.7 0.00 0.00 0.00 58 1034.3
20260508004551 15 360 14.5 25.7 0.00 0.00 0.00 58 1034.3
20260508004042 14 360 14.5 27.4 0.00 0.00 0.00 59 1034.2
20260508003543 14 360 14.5 30.6 0.00 0.00 0.00 59 1034.1
20260508003048 14 360 9.7 30.6 0.00 0.00 0.00 60 1034.1
20260508002542 13 360 16.1 30.6 0.00 0.00 0.00 60 1034.1
20260508002042 13 360 12.9 24.1 0.00 0.00 0.00 61 1034.1
20260508001556 13 360 14.5 27.4 0.00 0.00 0.00 61 1034.1
20260508001042 13 360 16.1 27.4 0.00 0.00 0.00 62 1034.0
20260508000542 13 360 14.5 22.5 0.00 0.00 0.00 62 1034.1
20260508000055 13 360 14.5 25.7 0.00 0.00 0.00 63 1034.1
20260507235542 13 360 11.3 25.7 0.00 0.00 0.00 64 1034.2
20260507235041 12 360 11.3 25.7 0.00 0.00 0.00 65 1034.2
20260507234620 12 360 12.9 20.9 0.00 0.00 0.00 66 1034.1
20260507234044 12 360 8.0 17.7 0.00 0.00 0.00 68 1033.9
20260507233541 12 360 9.7 17.7 0.00 0.00 0.00 69 1033.8
20260507233053 11 360 6.4 19.3 0.00 0.00 0.00 70 1033.8
20260507232542 11 360 9.7 19.3 0.00 0.00 0.00 71 1033.8
20260507232043 11 360 8.0 16.1 0.00 0.00 0.00 71 1033.7
20260507231548 11 360 4.8 12.9 0.00 0.00 0.00 73 1033.5
20260507231040 10 360 6.4 12.9 0.00 0.00 0.00 74 1033.6
20260507230544 10 360 4.8 9.7 0.00 0.00 0.00 75 1033.5
20260507230055 10 360 4.8 9.7 0.00 0.00 0.00 76 1033.4
20260507225544 10 360 4.8 9.7 0.00 0.00 0.00 76 1033.4
20260507225041 9 360 4.8 9.7 0.00 0.00 0.00 76 1033.3
20260507224553 9 360 4.8 8.0 0.00 0.00 0.00 77 1033.2
20260507224044 9 360 3.2 8.0 0.00 0.00 0.00 78 1033.4
20260507223543 8 360 3.2 8.0 0.00 0.00 0.00 79 1033.3
20260507223053 8 360 4.8 8.0 0.00 0.00 0.00 79 1033.3
20260507222544 8 360 3.2 8.0 0.00 0.00 0.00 79 1033.3
20260507222044 8 360 3.2 8.0 0.00 0.00 0.00 79 1033.2
20260507221553 8 360 4.8 6.4 0.00 0.00 0.00 79 1033.2
20260507221042 8 360 3.2 6.4 0.00 0.00 0.00 79 1033.2
20260507220541 8 360 3.2 6.4 0.00 0.00 0.00 79 1033.1
20260507220053 8 360 3.2 6.4 0.00 0.00 0.00 79 1033.0
20260507215542 8 360 3.2 6.4 0.00 0.00 0.00 79 1033.0
20260507215041 8 360 3.2 4.8 0.00 0.00 0.00 79 1033.0
20260507214555 8 360 3.2 4.8 0.00 0.00 0.00 79 1032.9